FENGYUN 1C DEB

Satellite information

Favourite Embed

Satellite Type and Status

DEBRISIN ORBIT

Key statistics

Satellite FENGYUN 1C DEB at a glance.

Uptime

9661

Days in orbit

Revolutions

≈ 14.4

Per day

Orbit

SSO

Sun Synchronous Orbit

Inclination

99.0

Latest

Satellite identification and parameters

Extended collection of information and parameters for FENGYUN 1C DEB.

Object identification

Identified? True

Debris? True

Object name: FENGYUN 1C DEB

International designator: 1999-025DWQ

Object number (NORAD): 36263

Object ID (CCSDS): 36263

Country: PEOPLES REPUBLIC OF CHINA (PRC)

Current information (Y/N): Y

RCS size: SMALL

Orbital parameters

Period: 99.683 minutes

Inclination: 99.0025 deg

SMA: 7121.533 km

Apoapsis: 771.12 km

Periapsis: 715.676 km

RAAN: 170.9965 deg

Eccentricy: 0.00389265

Argument of periapsis: 60.6379 deg

Mean anomaly: 299.8689 deg

Mean motion: 14.44583115 rev/day

Mean motion (dot): 0.00011741 rev/day2

B* drag term: 0.0033712658 1/REarth

Two-line elements (TLE)

Creation date: Oct. 20, 2025, 10:26 a.m.

Reference frame: TEME

Reference center: EARTH

Epoch: Oct. 20, 2025, 3:12 a.m. UTC

TLE line 0: 0 FENGYUN 1C DEB

TLE line 1: 1 36263U 99025DWQ 25293.13369862 .00011741 00000-0 33713-2 0 9997

TLE line 2: 2 36263 99.0025 170.9965 0038926 60.6379 299.8689 14.44583115872119

Live tracking on map

Real-time ground track for satellite FENGYUN 1C DEB.

In-orbit conjunctions

A list of the most updated potential collisions computed for object FENGYUN 1C DEB.

Target Orbit TCA Probability of collision Miss distance Type
COSMOS 1371 LEO 2024-09-21 05:05:56 0.0001438475 809.0 (m) PAYLOAD
COSMOS 1275 DEB LEO 2024-07-22 11:55:18 0.0001061096 77.0 (m) DEBRIS

Associated space launch

Chinese polar orbiting meteorological satellite

FENGYUN 1C DEB was lifted into orbit during the mission ‘Long March 4B | Feng Yun 1C’, on board a Long March 4B space rocket.

The launch took place on May 10, 1999, 1:33 a.m. from Launch Complex 7.

For more information about the launch, click the button.

Launch to space Long March 4B | Feng Yun 1C
Long March 4B | Feng Yun 1C

Agency: N/A

Status: Launch Successful

Launch date: May 10, 1999, 1:33 a.m. UTC

Rocket: Long March 4B

Launch pad: Launch Complex 7

Location: Taiyuan Satellite Launch Center, People's Republic of China

...

Latest news about this satellite

There are no fresh news available about this satellite. Check back as we update our databases every day.


Newsletter sign-up

Weekly statistics, charts and insights to help you stay on top of the space industry.